Location: Bard
(39.9279°N, 78.6592°W)
Time: 10:15:43
(UTC+00:00)

ARIANE 6 FM1 Upper Stage - Pass Details

Date: 18 December 2025
Orbit: 522 x 610 km, 62.0° (Epoch: 17 January)

Event Time Altitude Azimuth Distance (km) Brightness Sun altitude
Exits shadow 09:47:27 26° 87° (E) 1,065 4.6 -30.4°
Drops below altitude 10° 09:49:52 10° 56° (NE) 1,778 5.8 -30.0°
Sets 09:52:12 0° 46° (NE) 2,664 6.6 -29.5°
